| time (UTC) | temp F | wind direction | speed MPH | gust MPH | rain 1hr in | rain 24hr in | rain mn in | humidity % | barometer mb |
| 20260902194536 | 55 | 286 | 2.0 | 7.0 | 0.00 | 0.00 | 0.00 | 81 | 1017.2 |
| 20260902194015 | 55 | 284 | 2.0 | 7.0 | 0.00 | 0.00 | 0.00 | 81 | 1017.2 |
| 20260902193520 | 55 | 296 | 2.0 | 8.0 | 0.00 | 0.00 | 0.00 | 81 | 1017.1 |
| 20260902193035 | 55 | 292 | 2.0 | 9.0 | 0.00 | 0.00 | 0.00 | 81 | 1017.2 |
| 20260902192519 | 55 | 289 | 2.0 | 9.0 | 0.00 | 0.01 | 0.00 | 80 | 1017.1 |
| 20260902192019 | 55 | 290 | 3.0 | 9.0 | 0.00 | 0.01 | 0.00 | 80 | 1016.9 |
| 20260902191539 | 56 | 297 | 1.0 | 9.0 | 0.00 | 0.01 | 0.00 | 80 | 1016.9 |
| 20260902191018 | 56 | 294 | 2.0 | 9.0 | 0.00 | 0.01 | 0.00 | 79 | 1016.7 |
| 20260902190517 | 56 | 298 | 3.0 | 9.0 | 0.00 | 0.01 | 0.00 | 79 | 1016.7 |
| 20260902190040 | 56 | 307 | 2.0 | 9.0 | 0.00 | 0.01 | 0.00 | 79 | 1016.6 |
| 20260902185518 | 56 | 311 | 2.0 | 9.0 | 0.00 | 0.01 | 0.00 | 79 | 1016.6 |
| 20260902185015 | 56 | 275 | 3.0 | 8.0 | 0.00 | 0.01 | 0.00 | 79 | 1016.5 |
| 20260902184536 | 56 | 311 | 3.0 | 8.0 | 0.00 | 0.01 | 0.00 | 78 | 1016.6 |
| 20260902184021 | 56 | 294 | 3.0 | 8.0 | 0.00 | 0.01 | 0.00 | 78 | 1016.5 |
| 20260902183515 | 56 | 284 | 2.0 | 10.0 | 0.00 | 0.01 | 0.00 | 78 | 1016.6 |
| 20260902183035 | 56 | 255 | 3.0 | 12.0 | 0.00 | 0.01 | 0.00 | 78 | 1016.5 |
| 20260902182523 | 56 | 311 | 4.0 | 12.0 | 0.00 | 0.01 | 0.00 | 78 | 1016.6 |
| 20260902182019 | 56 | 313 | 5.0 | 12.0 | 0.00 | 0.01 | 0.00 | 78 | 1016.5 |
| 20260902181533 | 56 | 298 | 2.0 | 9.0 | 0.00 | 0.01 | 0.00 | 78 | 1016.6 |
| 20260902181023 | 56 | 318 | 4.0 | 9.0 | 0.00 | 0.01 | 0.00 | 77 | 1016.5 |
| 20260902180516 | 56 | 303 | 3.0 | 15.0 | 0.00 | 0.01 | 0.00 | 77 | 1016.5 |
| 20260902180043 | 56 | 281 | 4.0 | 15.0 | 0.00 | 0.01 | 0.00 | 77 | 1016.5 |
| 20260902175516 | 56 | 320 | 3.0 | 9.0 | 0.00 | 0.01 | 0.00 | 77 | 1016.5 |
| 20260902175018 | 56 | 311 | 3.0 | 9.0 | 0.00 | 0.01 | 0.00 | 76 | 1016.4 |
| 20260902174535 | 56 | 300 | 3.0 | 8.0 | 0.00 | 0.01 | 0.00 | 76 | 1016.4 |
| 20260902174019 | 56 | 281 | 3.0 | 8.0 | 0.00 | 0.01 | 0.00 | 76 | 1016.6 |
| 20260902173520 | 56 | 305 | 2.0 | 9.0 | 0.00 | 0.01 | 0.00 | 75 | 1016.6 |
| 20260902173035 | 56 | 289 | 2.0 | 9.0 | 0.00 | 0.01 | 0.00 | 75 | 1016.5 |
| 20260902172519 | 56 | 309 | 2.0 | 9.0 | 0.00 | 0.01 | 0.00 | 75 | 1016.6 |
| 20260902172019 | 56 | 257 | 4.0 | 9.0 | 0.00 | 0.01 | 0.00 | 75 | 1016.7 |
| 20260902171538 | 56 | 296 | 3.0 | 9.0 | 0.00 | 0.01 | 0.00 | 74 | 1016.6 |
| 20260902171020 | 56 | 256 | 5.0 | 9.0 | 0.00 | 0.01 | 0.00 | 74 | 1016.8 |
| 20260902170515 | 56 | 280 | 3.0 | 10.0 | 0.00 | 0.01 | 0.00 | 74 | 1016.6 |
| 20260902170035 | 56 | 299 | 3.0 | 10.0 | 0.00 | 0.01 | 0.00 | 74 | 1016.9 |
| 20260902165520 | 56 | 316 | 4.0 | 10.0 | 0.00 | 0.01 | 0.00 | 73 | 1016.8 |
| 20260902165017 | 56 | 302 | 3.0 | 8.0 | 0.00 | 0.01 | 0.00 | 73 | 1016.8 |
| 20260902164535 | 56 | 269 | 3.0 | 11.0 | 0.00 | 0.01 | 0.00 | 73 | 1017.0 |
| 20260902164017 | 56 | 292 | 2.0 | 11.0 | 0.00 | 0.01 | 0.00 | 72 | 1017.0 |
| 20260902163516 | 56 | 310 | 4.0 | 11.0 | 0.00 | 0.01 | 0.00 | 72 | 1017.0 |
| 20260902163033 | 56 | 304 | 3.0 | 10.0 | 0.00 | 0.01 | 0.00 | 72 | 1017.0 |
| 20260902162518 | 56 | 313 | 3.0 | 10.0 | 0.00 | 0.01 | 0.00 | 72 | 1017.1 |
| 20260902162018 | 56 | 297 | 4.0 | 10.0 | 0.00 | 0.01 | 0.00 | 73 | 1017.0 |
| 20260902161537 | 56 | 290 | 2.0 | 8.0 | 0.00 | 0.01 | 0.00 | 73 | 1017.3 |
| 20260902161018 | 56 | 291 | 1.0 | 8.0 | 0.00 | 0.01 | 0.00 | 73 | 1017.2 |
| 20260902160515 | 56 | 295 | 2.0 | 8.0 | 0.00 | 0.01 | 0.00 | 73 | 1017.4 |
| 20260902160037 | 56 | 269 | 1.0 | 6.0 | 0.00 | 0.01 | 0.00 | 73 | 1017.2 |
| 20260902155518 | 56 | 267 | 0.0 | 6.0 | 0.00 | 0.01 | 0.00 | 73 | 1017.3 |
| 20260902155020 | 56 | 269 | 1.0 | 7.0 | 0.00 | 0.01 | 0.00 | 73 | 1017.2 |
| 20260902154533 | 56 | 311 | 2.0 | 7.0 | 0.00 | 0.01 | 0.00 | 73 | 1017.3 |
| 20260902154019 | 56 | 0 | 1.0 | 9.0 | 0.00 | 0.01 | 0.00 | 73 | 1017.1 |
| 20260902153516 | 56 | 267 | 2.0 | 9.0 | 0.00 | 0.01 | 0.00 | 74 | 1017.3 |
| 20260902153039 | 56 | 273 | 3.0 | 9.0 | 0.00 | 0.01 | 0.00 | 74 | 1017.3 |
| 20260902152519 | 55 | 270 | 4.0 | 8.0 | 0.00 | 0.01 | 0.00 | 74 | 1017.5 |
| 20260902152018 | 55 | 0 | 2.0 | 9.0 | 0.00 | 0.01 | 0.00 | 75 | 1017.4 |
| 20260902151544 | 55 | 312 | 3.0 | 9.0 | 0.00 | 0.01 | 0.00 | 75 | 1017.4 |
| 20260902151016 | 55 | 285 | 3.0 | 8.0 | 0.00 | 0.01 | 0.00 | 75 | 1017.4 |
| 20260902150517 | 55 | 284 | 2.0 | 8.0 | 0.00 | 0.01 | 0.00 | 75 | 1017.4 |
| 20260902150037 | 55 | 283 | 2.0 | 7.0 | 0.00 | 0.01 | 0.00 | 75 | 1017.4 |
| 20260902145521 | 55 | 282 | 2.0 | 7.0 | 0.00 | 0.01 | 0.00 | 76 | 1017.3 |
| 20260902145017 | 55 | 278 | 2.0 | 9.0 | 0.00 | 0.01 | 0.00 | 76 | 1017.4 |
| 20260902144538 | 55 | 280 | 2.0 | 9.0 | 0.00 | 0.01 | 0.00 | 76 | 1017.3 |
| 20260902144018 | 55 | 277 | 3.0 | 9.0 | 0.00 | 0.01 | 0.00 | 76 | 1017.6 |
| 20260902143516 | 55 | 296 | 3.0 | 8.0 | 0.00 | 0.01 | 0.00 | 76 | 1017.4 |
| 20260902143036 | 55 | 286 | 1.0 | 7.0 | 0.00 | 0.01 | 0.00 | 77 | 1017.5 |
| 20260902142516 | 55 | 282 | 2.0 | 7.0 | 0.00 | 0.01 | 0.01 | 77 | 1017.4 |
| 20260902142016 | 55 | 281 | 2.0 | 7.0 | 0.00 | 0.01 | 0.01 | 77 | 1017.7 |
| 20260902141536 | 55 | 278 | 2.0 | 7.0 | 0.00 | 0.01 | 0.01 | 77 | 1017.6 |
| 20260902141021 | 55 | 277 | 1.0 | 6.0 | 0.00 | 0.01 | 0.01 | 77 | 1017.7 |
| 20260902140520 | 55 | 275 | 1.0 | 7.0 | 0.00 | 0.01 | 0.01 | 77 | 1017.8 |
| 20260902140036 | 55 | 274 | 1.0 | 7.0 | 0.00 | 0.01 | 0.01 | 77 | 1017.7 |
| 20260902135519 | 55 | 281 | 2.0 | 6.0 | 0.00 | 0.01 | 0.01 | 77 | 1017.9 |
| 20260902135019 | 55 | 284 | 1.0 | 7.0 | 0.00 | 0.01 | 0.01 | 77 | 1017.9 |
| 20260902134536 | 55 | 284 | 2.0 | 7.0 | 0.00 | 0.01 | 0.01 | 77 | 1018.0 |
| 20260902134016 | 55 | 284 | 1.0 | 7.0 | 0.00 | 0.01 | 0.01 | 77 | 1018.0 |
| 20260902133518 | 55 | 285 | 2.0 | 7.0 | 0.00 | 0.01 | 0.01 | 77 | 1017.9 |
| 20260902133035 | 54 | 277 | 1.0 | 6.0 | 0.00 | 0.01 | 0.01 | 77 | 1018.0 |
| 20260902132516 | 54 | 272 | 1.0 | 4.0 | 0.00 | 0.01 | 0.01 | 76 | 1018.0 |
| 20260902132015 | 54 | 270 | 0.0 | 4.0 | 0.00 | 0.01 | 0.01 | 76 | 1018.0 |
| 20260902131535 | 54 | 269 | 0.0 | 2.0 | 0.00 | 0.01 | 0.01 | 76 | 1018.0 |
| 20260902131019 | 54 | 0 | 0.0 | 2.0 | 0.00 | 0.01 | 0.01 | 75 | 1018.0 |
| 20260902130519 | 54 | 0 | 0.0 | 2.0 | 0.00 | 0.01 | 0.01 | 75 | 1018.0 |
| 20260902130037 | 54 | 0 | 0.0 | 2.0 | 0.00 | 0.01 | 0.01 | 75 | 1018.0 |
| 20260902125519 | 54 | 0 | 0.0 | 2.0 | 0.00 | 0.01 | 0.01 | 74 | 1018.0 |
| 20260902125020 | 54 | 0 | 0.0 | 0.0 | 0.00 | 0.01 | 0.01 | 74 | 1018.1 |
| 20260902124535 | 54 | 0 | 0.0 | 0.0 | 0.00 | 0.01 | 0.01 | 74 | 1018.1 |
| 20260902124016 | 54 | 0 | 0.0 | 0.0 | 0.00 | 0.01 | 0.01 | 74 | 1018.0 |
| 20260902123517 | 55 | 0 | 0.0 | 0.0 | 0.00 | 0.01 | 0.01 | 74 | 1018.1 |
| 20260902123034 | 55 | 0 | 0.0 | 0.0 | 0.00 | 0.01 | 0.01 | 74 | 1018.1 |
| 20260902122518 | 55 | 0 | 0.0 | 0.0 | 0.00 | 0.01 | 0.01 | 74 | 1018.2 |
| 20260902122019 | 55 | 0 | 0.0 | 1.0 | 0.00 | 0.01 | 0.01 | 74 | 1018.2 |
| 20260902121535 | 55 | 0 | 0.0 | 2.0 | 0.00 | 0.01 | 0.01 | 74 | 1018.3 |
| 20260902121021 | 55 | 0 | 0.0 | 2.0 | 0.00 | 0.01 | 0.01 | 74 | 1018.2 |
| 20260902120517 | 55 | 0 | 0.0 | 2.0 | 0.00 | 0.01 | 0.01 | 73 | 1018.3 |
| 20260902120034 | 55 | 0 | 0.0 | 3.0 | 0.00 | 0.01 | 0.01 | 73 | 1018.4 |
| 20260902115519 | 55 | 0 | 0.0 | 3.0 | 0.00 | 0.01 | 0.01 | 73 | 1018.3 |
| 20260902115019 | 56 | 0 | 0.0 | 3.0 | 0.00 | 0.01 | 0.01 | 73 | 1018.2 |
| 20260902114535 | 56 | 0 | 0.0 | 4.0 | 0.00 | 0.01 | 0.01 | 73 | 1018.1 |
| 20260902114023 | 56 | 0 | 0.0 | 4.0 | 0.00 | 0.01 | 0.01 | 73 | 1017.9 |
| 20260902113516 | 56 | 269 | 0.0 | 4.0 | 0.00 | 0.01 | 0.01 | 73 | 1018.0 |
| 20260902113031 | 56 | 270 | 0.0 | 3.0 | 0.00 | 0.01 | 0.01 | 73 | 1017.9 |
| 20260902112518 | 56 | 272 | 0.0 | 2.0 | 0.00 | 0.01 | 0.01 | 72 | 1018.0 |
| 20260902112019 | 56 | 0 | 0.0 | 3.0 | 0.00 | 0.01 | 0.01 | 72 | 1017.8 |
| 20260902111535 | 56 | 272 | 1.0 | 4.0 | 0.00 | 0.01 | 0.01 | 72 | 1017.7 |
| 20260902111017 | 56 | 273 | 1.0 | 4.0 | 0.00 | 0.01 | 0.01 | 72 | 1017.7 |
| 20260902110516 | 56 | 0 | 0.0 | 7.0 | 0.00 | 0.01 | 0.01 | 72 | 1017.7 |
| 20260902110033 | 56 | 273 | 3.0 | 7.0 | 0.00 | 0.01 | 0.01 | 71 | 1017.6 |
| 20260902105518 | 56 | 244 | 2.0 | 6.0 | 0.00 | 0.01 | 0.01 | 71 | 1017.8 |
| 20260902105019 | 56 | 253 | 1.0 | 6.0 | 0.00 | 0.01 | 0.01 | 71 | 1017.8 |
| 20260902104540 | 56 | 250 | 2.0 | 6.0 | 0.00 | 0.01 | 0.01 | 71 | 1017.8 |
| 20260902104019 | 56 | 268 | 2.0 | 9.0 | 0.00 | 0.01 | 0.01 | 70 | 1017.7 |
| 20260902103516 | 56 | 217 | 2.0 | 9.0 | 0.00 | 0.01 | 0.01 | 70 | 1017.7 |
| 20260902103036 | 56 | 238 | 4.0 | 13.0 | 0.00 | 0.01 | 0.01 | 69 | 1017.7 |
| 20260902102515 | 56 | 258 | 3.0 | 13.0 | 0.00 | 0.01 | 0.01 | 69 | 1017.5 |
| 20260902102016 | 56 | 288 | 1.0 | 4.0 | 0.00 | 0.01 | 0.01 | 68 | 1017.4 |
| 20260902101536 | 56 | 288 | 2.0 | 4.0 | 0.00 | 0.01 | 0.01 | 68 | 1017.2 |
| 20260902101017 | 56 | 0 | 0.0 | 5.0 | 0.00 | 0.01 | 0.01 | 67 | 1017.4 |
| 20260902100519 | 56 | 0 | 1.0 | 5.0 | 0.00 | 0.01 | 0.01 | 67 | 1017.4 |
| 20260902100034 | 56 | 288 | 0.0 | 5.0 | 0.00 | 0.01 | 0.01 | 67 | 1017.3 |
| 20260902095518 | 56 | 288 | 1.0 | 5.0 | 0.00 | 0.01 | 0.01 | 67 | 1017.2 |
| 20260902095018 | 56 | 290 | 1.0 | 5.0 | 0.00 | 0.01 | 0.01 | 67 | 1017.2 |
| 20260902094533 | 56 | 290 | 1.0 | 5.0 | 0.00 | 0.01 | 0.01 | 67 | 1017.2 |
| 20260902094017 | 55 | 290 | 1.0 | 7.0 | 0.00 | 0.01 | 0.01 | 67 | 1017.2 |
| 20260902093516 | 55 | 291 | 2.0 | 7.0 | 0.00 | 0.01 | 0.01 | 68 | 1017.2 |
| 20260902093037 | 56 | 294 | 2.0 | 5.0 | 0.00 | 0.01 | 0.01 | 69 | 1017.1 |
| 20260902092519 | 56 | 294 | 1.0 | 5.0 | 0.00 | 0.01 | 0.01 | 69 | 1017.1 |
| 20260902092018 | 56 | 293 | 1.0 | 4.0 | 0.00 | 0.01 | 0.01 | 68 | 1017.1 |
| 20260902091531 | 56 | 294 | 0.0 | 3.0 | 0.00 | 0.01 | 0.01 | 68 | 1017.0 |
| 20260902091016 | 56 | 294 | 1.0 | 3.0 | 0.00 | 0.01 | 0.01 | 68 | 1017.0 |
| 20260902090516 | 56 | 294 | 0.0 | 5.0 | 0.00 | 0.01 | 0.01 | 68 | 1017.0 |
| 20260902090034 | 56 | 294 | 1.0 | 5.0 | 0.00 | 0.01 | 0.01 | 67 | 1017.0 |
| 20260902085516 | 56 | 294 | 1.0 | 5.0 | 0.00 | 0.01 | 0.01 | 67 | 1017.1 |
| 20260902085018 | 56 | 296 | 2.0 | 5.0 | 0.00 | 0.01 | 0.01 | 66 | 1016.9 |
| 20260902084534 | 56 | 0 | 1.0 | 5.0 | 0.00 | 0.01 | 0.01 | 66 | 1016.9 |
| 20260902084017 | 56 | 296 | 1.0 | 5.0 | 0.00 | 0.01 | 0.01 | 66 | 1016.7 |
| 20260902083515 | 57 | 298 | 0.0 | 4.0 | 0.00 | 0.01 | 0.01 | 66 | 1016.6 |
| 20260902083032 | 57 | 298 | 1.0 | 8.0 | 0.00 | 0.01 | 0.01 | 66 | 1016.6 |
| 20260902082522 | 57 | 300 | 1.0 | 8.0 | 0.00 | 0.01 | 0.01 | 66 | 1016.6 |
| 20260902082020 | 57 | 252 | 3.0 | 8.0 | 0.00 | 0.01 | 0.01 | 65 | 1016.6 |
| 20260902081535 | 57 | 264 | 1.0 | 7.0 | 0.00 | 0.01 | 0.01 | 65 | 1016.5 |
| 20260902081016 | 58 | 267 | 3.0 | 8.0 | 0.00 | 0.01 | 0.01 | 65 | 1016.6 |
| 20260902080516 | 58 | 258 | 3.0 | 8.0 | 0.00 | 0.01 | 0.01 | 65 | 1016.6 |
| 20260902080034 | 58 | 261 | 2.0 | 10.0 | 0.00 | 0.01 | 0.01 | 65 | 1016.5 |
| 20260902075521 | 58 | 294 | 4.0 | 10.0 | 0.00 | 0.01 | 0.01 | 65 | 1016.5 |
| 20260902075015 | 58 | 284 | 2.0 | 7.0 | 0.00 | 0.01 | 0.01 | 66 | 1016.5 |
| 20260902074535 | 58 | 280 | 2.0 | 9.0 | 0.00 | 0.01 | 0.01 | 66 | 1016.6 |
| 20260902074016 | 58 | 280 | 2.0 | 9.0 | 0.00 | 0.01 | 0.01 | 66 | 1016.6 |
| 20260902073515 | 58 | 272 | 2.0 | 9.0 | 0.00 | 0.01 | 0.01 | 66 | 1016.5 |
| 20260902073034 | 58 | 290 | 2.0 | 8.0 | 0.00 | 0.01 | 0.01 | 66 | 1016.5 |
| 20260902072515 | 58 | 298 | 2.0 | 8.0 | 0.00 | 0.10 | 0.01 | 66 | 1016.5 |
| 20260902072023 | 58 | 297 | 2.0 | 8.0 | 0.00 | 0.10 | 0.01 | 66 | 1016.5 |
| 20260902071534 | 58 | 305 | 3.0 | 8.0 | 0.00 | 0.10 | 0.01 | 66 | 1016.5 |
| 20260902071019 | 58 | 212 | 1.0 | 8.0 | 0.00 | 0.10 | 0.01 | 66 | 1016.6 |
| 20260902070518 | 58 | 208 | 0.0 | 8.0 | 0.00 | 0.10 | 0.01 | 65 | 1016.5 |
| 20260902070033 | 58 | 200 | 2.0 | 8.0 | 0.00 | 0.10 | 0.01 | 65 | 1016.7 |
| 20260902065519 | 59 | 234 | 2.0 | 6.0 | 0.00 | 0.10 | 0.01 | 65 | 1016.7 |
| 20260902065016 | 59 | 229 | 2.0 | 7.0 | 0.00 | 0.10 | 0.01 | 64 | 1016.6 |
| 20260902064532 | 59 | 224 | 3.0 | 8.0 | 0.00 | 0.10 | 0.01 | 64 | 1016.5 |
| 20260902064015 | 59 | 233 | 2.0 | 8.0 | 0.00 | 0.10 | 0.01 | 64 | 1016.5 |
| 20260902063522 | 59 | 227 | 2.0 | 8.0 | 0.00 | 0.10 | 0.01 | 63 | 1016.5 |
| 20260902063042 | 59 | 0 | 1.0 | 7.0 | 0.00 | 0.10 | 0.01 | 63 | 1016.5 |
| 20260902062523 | 59 | 210 | 2.0 | 7.0 | 0.00 | 0.14 | 0.01 | 63 | 1016.5 |
| 20260902062019 | 60 | 192 | 2.0 | 7.0 | 0.00 | 0.14 | 0.01 | 63 | 1016.5 |
| 20260902061548 | 60 | 271 | 1.0 | 6.0 | 0.00 | 0.14 | 0.01 | 62 | 1016.5 |
| 20260902061019 | 60 | 270 | 2.0 | 6.0 | 0.00 | 0.14 | 0.01 | 61 | 1016.5 |
| 20260902060518 | 60 | 271 | 2.0 | 7.0 | 0.00 | 0.14 | 0.01 | 61 | 1016.6 |
| 20260902060031 | 61 | 274 | 2.0 | 7.0 | 0.00 | 0.14 | 0.01 | 61 | 1016.6 |
| 20260902055519 | 61 | 260 | 1.0 | 6.0 | 0.00 | 0.14 | 0.01 | 61 | 1016.6 |
| 20260902055019 | 61 | 262 | 2.0 | 6.0 | 0.00 | 0.14 | 0.01 | 61 | 1016.6 |
| 20260902054535 | 61 | 259 | 2.0 | 8.0 | 0.00 | 0.14 | 0.01 | 60 | 1016.6 |
| 20260902054018 | 61 | 247 | 3.0 | 8.0 | 0.00 | 0.14 | 0.01 | 60 | 1016.6 |
| 20260902053518 | 61 | 247 | 2.0 | 5.0 | 0.00 | 0.14 | 0.01 | 60 | 1016.6 |
| 20260902053031 | 61 | 247 | 1.0 | 8.0 | 0.00 | 0.14 | 0.01 | 60 | 1016.7 |
| 20260902052522 | 61 | 259 | 2.0 | 8.0 | 0.00 | 0.14 | 0.01 | 59 | 1016.7 |
| 20260902052017 | 61 | 263 | 2.0 | 6.0 | 0.00 | 0.14 | 0.01 | 59 | 1016.8 |
| 20260902051534 | 61 | 269 | 1.0 | 6.0 | 0.00 | 0.14 | 0.01 | 60 | 1016.8 |
| 20260902051019 | 61 | 268 | 2.0 | 6.0 | 0.00 | 0.14 | 0.01 | 60 | 1016.8 |
| 20260902050519 | 61 | 255 | 0.0 | 6.0 | 0.00 | 0.14 | 0.01 | 59 | 1016.8 |
| 20260902050056 | 61 | 255 | 2.0 | 8.0 | 0.00 | 0.14 | 0.01 | 60 | 1016.9 |
| 20260902045518 | 61 | 260 | 2.0 | 8.0 | 0.00 | 0.14 | 0.01 | 59 | 1016.8 |
| 20260902045022 | 61 | 288 | 1.0 | 7.0 | 0.00 | 0.14 | 0.01 | 60 | 1016.9 |
| 20260902044536 | 61 | 286 | 2.0 | 7.0 | 0.00 | 0.14 | 0.01 | 59 | 1016.9 |
| 20260902044021 | 61 | 290 | 2.0 | 8.0 | 0.00 | 0.14 | 0.01 | 58 | 1016.9 |
| 20260902043518 | 61 | 300 | 2.0 | 8.0 | 0.00 | 0.14 | 0.01 | 58 | 1016.9 |
| 20260902043037 | 61 | 278 | 2.0 | 7.0 | 0.00 | 0.14 | 0.01 | 58 | 1017.0 |
| 20260902042521 | 61 | 282 | 2.0 | 7.0 | 0.00 | 0.14 | 0.01 | 58 | 1016.9 |
| 20260902042020 | 61 | 282 | 2.0 | 7.0 | 0.00 | 0.14 | 0.01 | 58 | 1016.8 |
| 20260902041535 | 61 | 303 | 2.0 | 11.0 | 0.00 | 0.14 | 0.01 | 59 | 1017.1 |
| 20260902041018 | 62 | 281 | 3.0 | 11.0 | 0.00 | 0.14 | 0.01 | 58 | 1017.0 |
| 20260902040519 | 62 | 255 | 2.0 | 9.0 | 0.00 | 0.14 | 0.01 | 57 | 1017.0 |
| 20260902040035 | 62 | 257 | 3.0 | 10.0 | 0.00 | 0.14 | 0.01 | 58 | 1017.2 |
| 20260902035518 | 62 | 260 | 4.0 | 10.0 | 0.00 | 0.14 | 0.01 | 59 | 1017.3 |
| 20260902035022 | 62 | 257 | 5.0 | 10.0 | 0.00 | 0.14 | 0.01 | 59 | 1017.3 |
| 20260902034532 | 62 | 277 | 2.0 | 9.0 | 0.00 | 0.14 | 0.01 | 59 | 1017.2 |
| 20260902034023 | 62 | 304 | 3.0 | 9.0 | 0.00 | 0.14 | 0.01 | 60 | 1017.2 |
| 20260902033515 | 62 | 250 | 2.0 | 10.0 | 0.00 | 0.14 | 0.01 | 61 | 1017.3 |
| 20260902033052 | 62 | 286 | 1.0 | 10.0 | 0.00 | 0.14 | 0.01 | 60 | 1017.3 |
| 20260902032520 | 62 | 280 | 3.0 | 10.0 | 0.00 | 0.14 | 0.01 | 60 | 1017.2 |
| 20260902032023 | 63 | 0 | 2.0 | 10.0 | 0.00 | 0.14 | 0.01 | 60 | 1017.3 |
| 20260902031532 | 63 | 230 | 3.0 | 8.0 | 0.00 | 0.14 | 0.01 | 60 | 1017.3 |
| 20260902031019 | 63 | 228 | 2.0 | 9.0 | 0.00 | 0.14 | 0.01 | 61 | 1017.4 |
| 20260902030518 | 63 | 200 | 4.0 | 10.0 | 0.00 | 0.14 | 0.01 | 61 | 1017.4 |
| 20260902030034 | 63 | 268 | 3.0 | 10.0 | 0.00 | 0.14 | 0.01 | 61 | 1017.4 |
| 20260902025520 | 63 | 298 | 3.0 | 8.0 | 0.00 | 0.14 | 0.01 | 62 | 1017.4 |
| 20260902025016 | 62 | 307 | 3.0 | 9.0 | 0.00 | 0.14 | 0.01 | 62 | 1017.4 |
| 20260902024543 | 61 | 315 | 2.0 | 9.0 | 0.00 | 0.14 | 0.01 | 62 | 1017.5 |
| 20260902024018 | 61 | 261 | 2.0 | 9.0 | 0.00 | 0.14 | 0.01 | 62 | 1017.7 |
| 20260902023515 | 61 | 259 | 2.0 | 9.0 | 0.00 | 0.14 | 0.01 | 62 | 1017.8 |
| 20260902023036 | 61 | 234 | 2.0 | 5.0 | 0.00 | 0.14 | 0.01 | 63 | 1017.9 |
| 20260902022518 | 61 | 252 | 1.0 | 6.0 | 0.00 | 0.14 | 0.01 | 63 | 1017.8 |
| 20260902022019 | 61 | 255 | 2.0 | 6.0 | 0.00 | 0.14 | 0.01 | 63 | 1017.7 |
| 20260902021534 | 61 | 271 | 2.0 | 6.0 | 0.00 | 0.14 | 0.01 | 64 | 1017.8 |
| 20260902021019 | 61 | 265 | 2.0 | 6.0 | 0.00 | 0.14 | 0.01 | 64 | 1017.9 |
| 20260902020519 | 60 | 281 | 1.0 | 6.0 | 0.00 | 0.14 | 0.01 | 65 | 1017.9 |
| 20260902020038 | 60 | 281 | 2.0 | 7.0 | 0.00 | 0.14 | 0.01 | 65 | 1018.1 |
| 20260902015519 | 60 | 279 | 2.0 | 7.0 | 0.00 | 0.14 | 0.01 | 65 | 1018.0 |
| 20260902015018 | 60 | 250 | 1.0 | 6.0 | 0.00 | 0.14 | 0.01 | 66 | 1018.1 |
| 20260902014534 | 60 | 263 | 2.0 | 6.0 | 0.00 | 0.14 | 0.01 | 67 | 1018.2 |
| 20260902014015 | 60 | 0 | 1.0 | 8.0 | 0.00 | 0.14 | 0.01 | 67 | 1018.2 |
| 20260902013516 | 60 | 271 | 2.0 | 8.0 | 0.00 | 0.14 | 0.01 | 67 | 1018.2 |
| 20260902013035 | 60 | 259 | 4.0 | 8.0 | 0.00 | 0.14 | 0.01 | 67 | 1018.3 |
| 20260902012521 | 60 | 263 | 3.0 | 7.0 | 0.00 | 0.14 | 0.01 | 68 | 1018.5 |
| 20260902012022 | 60 | 257 | 3.0 | 7.0 | 0.00 | 0.14 | 0.01 | 68 | 1018.4 |
| 20260902011534 | 60 | 262 | 1.0 | 7.0 | 0.00 | 0.14 | 0.01 | 69 | 1018.5 |
| 20260902011016 | 59 | 268 | 3.0 | 7.0 | 0.00 | 0.14 | 0.01 | 69 | 1018.6 |
| 20260902010521 | 59 | 260 | 2.0 | 8.0 | 0.00 | 0.14 | 0.01 | 70 | 1018.6 |
| 20260902010031 | 59 | 262 | 2.0 | 8.0 | 0.00 | 0.14 | 0.01 | 70 | 1018.7 |
| 20260902005520 | 59 | 266 | 3.0 | 7.0 | 0.00 | 0.14 | 0.01 | 71 | 1018.6 |
| 20260902005016 | 59 | 267 | 2.0 | 6.0 | 0.00 | 0.14 | 0.01 | 72 | 1018.8 |
| 20260902004533 | 58 | 266 | 2.0 | 6.0 | 0.00 | 0.14 | 0.01 | 72 | 1018.9 |
| 20260902004015 | 58 | 263 | 2.0 | 7.0 | 0.00 | 0.14 | 0.01 | 73 | 1018.9 |
| 20260902003515 | 58 | 265 | 2.0 | 7.0 | 0.00 | 0.14 | 0.01 | 74 | 1018.9 |
| 20260902003035 | 58 | 271 | 2.0 | 7.0 | 0.00 | 0.14 | 0.01 | 75 | 1019.0 |
| 20260902002521 | 57 | 267 | 1.0 | 9.0 | 0.00 | 0.14 | 0.01 | 76 | 1018.9 |
| 20260902002019 | 57 | 265 | 2.0 | 9.0 | 0.00 | 0.14 | 0.01 | 77 | 1019.2 |
| 20260902001534 | 58 | 261 | 3.0 | 9.0 | 0.00 | 0.14 | 0.01 | 78 | 1019.1 |
| 20260902001019 | 58 | 279 | 2.0 | 8.0 | 0.00 | 0.14 | 0.01 | 80 | 1019.1 |
| 20260902000520 | 57 | 282 | 3.0 | 8.0 | 0.00 | 0.14 | 0.01 | 81 | 1018.9 |
| 20260902000033 | 57 | 289 | 2.0 | 5.0 | 0.00 | 0.14 | 0.01 | 83 | 1019.1 |
| 20260901235518 | 56 | 287 | 2.0 | 7.0 | 0.00 | 0.14 | 0.01 | 84 | 1019.0 |
| 20260901235015 | 56 | 291 | 1.0 | 7.0 | 0.00 | 0.14 | 0.01 | 84 | 1019.1 |
| 20260901234533 | 55 | 289 | 1.0 | 9.0 | 0.00 | 0.14 | 0.01 | 85 | 1019.1 |
| 20260901234016 | 55 | 0 | 1.0 | 9.0 | 0.00 | 0.14 | 0.01 | 85 | 1019.1 |
| 20260901233518 | 55 | 298 | 2.0 | 9.0 | 0.00 | 0.14 | 0.01 | 86 | 1019.1 |
| 20260901233039 | 55 | 291 | 2.0 | 7.0 | 0.00 | 0.14 | 0.01 | 87 | 1019.1 |
| 20260901232519 | 55 | 271 | 1.0 | 7.0 | 0.00 | 0.14 | 0.01 | 87 | 1019.3 |
| 20260901232019 | 55 | 277 | 2.0 | 7.0 | 0.00 | 0.14 | 0.01 | 87 | 1019.4 |
| 20260901231536 | 54 | 280 | 2.0 | 7.0 | 0.00 | 0.14 | 0.01 | 87 | 1019.4 |
| 20260901231019 | 54 | 284 | 2.0 | 7.0 | 0.00 | 0.14 | 0.01 | 88 | 1019.3 |
| 20260901230517 | 54 | 277 | 2.0 | 5.0 | 0.00 | 0.14 | 0.01 | 88 | 1019.7 |
| 20260901230033 | 54 | 289 | 2.0 | 5.0 | 0.00 | 0.14 | 0.01 | 88 | 1019.6 |
| 20260901225517 | 54 | 294 | 2.0 | 4.0 | 0.00 | 0.14 | 0.01 | 88 | 1019.6 |
| 20260901225017 | 54 | 296 | 0.0 | 3.0 | 0.00 | 0.14 | 0.01 | 88 | 1019.6 |
| 20260901224537 | 54 | 0 | 0.0 | 3.0 | 0.00 | 0.14 | 0.01 | 88 | 1019.7 |
| 20260901224018 | 54 | 296 | 0.0 | 3.0 | 0.00 | 0.14 | 0.01 | 88 | 1019.6 |
| 20260901223517 | 54 | 0 | 0.0 | 2.0 | 0.00 | 0.14 | 0.01 | 88 | 1019.6 |
| 20260901223032 | 54 | 296 | 0.0 | 2.0 | 0.00 | 0.14 | 0.01 | 88 | 1019.4 |
| 20260901222518 | 54 | 0 | 0.0 | 1.0 | 0.00 | 0.14 | 0.01 | 88 | 1019.3 |
| 20260901222018 | 54 | 0 | 0.0 | 0.0 | 0.00 | 0.14 | 0.01 | 88 | 1019.3 |
| 20260901221534 | 54 | 0 | 0.0 | 0.0 | 0.00 | 0.14 | 0.01 | 88 | 1019.3 |
| 20260901221019 | 54 | 0 | 0.0 | 0.0 | 0.00 | 0.14 | 0.01 | 88 | 1019.2 |
| 20260901220518 | 53 | 0 | 0.0 | 0.0 | 0.00 | 0.14 | 0.01 | 88 | 1019.2 |
| 20260901220033 | 53 | 0 | 0.0 | 0.0 | 0.00 | 0.14 | 0.01 | 88 | 1019.2 |
| 20260901215516 | 53 | 0 | 0.0 | 0.0 | 0.00 | 0.14 | 0.01 | 88 | 1019.2 |
| 20260901215016 | 53 | 0 | 0.0 | 0.0 | 0.00 | 0.14 | 0.01 | 88 | 1019.1 |
| 20260901214543 | 53 | 0 | 0.0 | 0.0 | 0.00 | 0.14 | 0.01 | 88 | 1019.2 |
| 20260901214017 | 53 | 0 | 0.0 | 0.0 | 0.00 | 0.14 | 0.01 | 88 | 1019.1 |
| 20260901213519 | 53 | 0 | 0.0 | 0.0 | 0.00 | 0.14 | 0.01 | 88 | 1019.1 |
| 20260901213034 | 53 | 0 | 0.0 | 0.0 | 0.00 | 0.14 | 0.01 | 88 | 1018.9 |
| 20260901212516 | 53 | 0 | 0.0 | 0.0 | 0.00 | 0.14 | 0.01 | 87 | 1018.9 |
| 20260901212016 | 53 | 0 | 0.0 | 0.0 | 0.00 | 0.14 | 0.01 | 87 | 1018.9 |
| 20260901211534 | 53 | 0 | 0.0 | 0.0 | 0.00 | 0.14 | 0.01 | 87 | 1018.8 |
| 20260901211017 | 53 | 0 | 0.0 | 0.0 | 0.00 | 0.14 | 0.01 | 87 | 1018.9 |
| 20260901210518 | 53 | 0 | 0.0 | 0.0 | 0.00 | 0.14 | 0.01 | 87 | 1018.8 |
| 20260901210031 | 53 | 0 | 0.0 | 0.0 | 0.00 | 0.14 | 0.01 | 87 | 1018.6 |
| 20260901205516 | 53 | 0 | 0.0 | 0.0 | 0.00 | 0.14 | 0.01 | 87 | 1018.5 |
| 20260901205016 | 53 | 0 | 0.0 | 0.0 | 0.00 | 0.14 | 0.01 | 87 | 1018.5 |
| 20260901204535 | 53 | 0 | 0.0 | 0.0 | 0.00 | 0.14 | 0.01 | 87 | 1018.4 |
| 20260901204023 | 54 | 0 | 0.0 | 0.0 | 0.00 | 0.14 | 0.01 | 87 | 1018.4 |
| 20260901203520 | 54 | 0 | 0.0 | 0.0 | 0.00 | 0.14 | 0.01 | 87 | 1018.3 |
| 20260901203034 | 54 | 0 | 0.0 | 0.0 | 0.00 | 0.14 | 0.01 | 87 | 1018.3 |
| 20260901202516 | 54 | 0 | 0.0 | 0.0 | 0.00 | 0.13 | 0.00 | 87 | 1018.3 |
| 20260901202016 | 54 | 0 | 0.0 | 0.0 | 0.00 | 0.13 | 0.00 | 87 | 1018.1 |
| 20260901201533 | 54 | 0 | 0.0 | 0.0 | 0.00 | 0.13 | 0.00 | 87 | 1018.3 |
| 20260901201019 | 54 | 0 | 0.0 | 0.0 | 0.00 | 0.13 | 0.00 | 87 | 1018.3 |
| 20260901200516 | 54 | 0 | 0.0 | 0.0 | 0.00 | 0.13 | 0.00 | 87 | 1018.2 |
| 20260901200041 | 54 | 0 | 0.0 | 0.0 | 0.00 | 0.13 | 0.00 | 87 | 1018.2 |
| 20260901195518 | 54 | 0 | 0.0 | 0.0 | 0.00 | 0.13 | 0.00 | 87 | 1018.0 |
| 20260901195022 | 54 | 0 | 0.0 | 0.0 | 0.00 | 0.13 | 0.00 | 87 | 1018.1 |